| time (UTC) | temp C | wind direction | speed KPH | gust KPH | rain 1hr cm | rain 24hr cm | rain mn cm | humidity % | barometer mb |
| 20260510065055 | 10 | 136 | 0.0 | 0.0 | 0.00 | 0.00 | 0.00 | 59 | 1009.4 |
| 20260510064555 | 10 | 136 | 0.0 | 0.0 | 0.00 | 0.00 | 0.00 | 59 | 1009.4 |
| 20260510064054 | 11 | 136 | 0.0 | 0.0 | 0.00 | 0.00 | 0.00 | 59 | 1009.5 |
| 20260510063555 | 11 | 136 | 0.0 | 0.0 | 0.00 | 0.00 | 0.00 | 58 | 1009.5 |
| 20260510063055 | 11 | 136 | 0.0 | 0.0 | 0.00 | 0.00 | 0.00 | 58 | 1009.5 |
| 20260510062555 | 11 | 136 | 0.0 | 0.0 | 0.00 | 0.00 | 0.00 | 57 | 1009.5 |
| 20260510062053 | 11 | 136 | 0.0 | 0.0 | 0.00 | 0.00 | 0.00 | 57 | 1009.5 |
| 20260510061553 | 11 | 136 | 0.0 | 0.0 | 0.00 | 0.00 | 0.00 | 57 | 1009.7 |
| 20260510061053 | 11 | 136 | 0.0 | 0.0 | 0.00 | 0.00 | 0.00 | 56 | 1009.6 |
| 20260510060553 | 11 | 136 | 0.0 | 0.0 | 0.00 | 0.00 | 0.00 | 56 | 1009.6 |
| 20260510060054 | 11 | 136 | 0.0 | 0.0 | 0.00 | 0.00 | 0.00 | 56 | 1009.6 |
| 20260510055554 | 11 | 136 | 0.0 | 9.7 | 0.00 | 0.00 | 0.00 | 57 | 1009.7 |
| 20260510055054 | 11 | 136 | 0.0 | 9.7 | 0.00 | 0.00 | 0.00 | 57 | 1009.8 |
| 20260510054554 | 11 | 136 | 0.0 | 9.7 | 0.00 | 0.00 | 0.00 | 56 | 1009.7 |
| 20260510054054 | 11 | 136 | 0.0 | 9.7 | 0.00 | 0.00 | 0.00 | 56 | 1009.9 |
| 20260510053553 | 11 | 136 | 0.0 | 9.7 | 0.00 | 0.00 | 0.00 | 56 | 1010.0 |
| 20260510053053 | 12 | 136 | 0.0 | 9.7 | 0.00 | 0.00 | 0.00 | 55 | 1010.0 |
| 20260510052553 | 12 | 136 | 0.0 | 9.7 | 0.00 | 0.00 | 0.00 | 55 | 1010.0 |
| 20260510052053 | 12 | 136 | 0.0 | 9.7 | 0.00 | 0.00 | 0.00 | 55 | 1010.0 |
| 20260510051553 | 12 | 136 | 0.0 | 9.7 | 0.00 | 0.00 | 0.00 | 55 | 1010.0 |
| 20260510051053 | 12 | 136 | 0.0 | 9.7 | 0.00 | 0.00 | 0.00 | 55 | 1010.0 |
| 20260510050555 | 12 | 136 | 0.0 | 9.7 | 0.00 | 0.00 | 0.00 | 55 | 1010.0 |
| 20260510050054 | 12 | 136 | 0.0 | 9.7 | 0.00 | 0.00 | 0.00 | 54 | 1010.0 |
| 20260510045553 | 12 | 136 | 0.0 | 9.7 | 0.00 | 0.00 | 0.00 | 54 | 1010.0 |
| 20260510045054 | 12 | 136 | 0.0 | 9.7 | 0.00 | 0.00 | 0.00 | 54 | 1010.0 |
| 20260510044554 | 12 | 136 | 0.0 | 9.7 | 0.00 | 0.00 | 0.00 | 54 | 1009.9 |
| 20260510044053 | 12 | 136 | 0.0 | 9.7 | 0.00 | 0.00 | 0.00 | 53 | 1009.8 |
| 20260510043554 | 12 | 136 | 0.0 | 9.7 | 0.00 | 0.00 | 0.00 | 53 | 1009.9 |
| 20260510043055 | 13 | 136 | 0.0 | 9.7 | 0.00 | 0.00 | 0.00 | 53 | 1009.9 |
| 20260510042553 | 13 | 136 | 0.0 | 9.7 | 0.00 | 0.00 | 0.00 | 52 | 1009.9 |
| 20260510042053 | 13 | 136 | 0.0 | 9.7 | 0.00 | 0.00 | 0.00 | 52 | 1009.8 |
| 20260510041554 | 13 | 136 | 0.0 | 9.7 | 0.00 | 0.00 | 0.00 | 51 | 1009.8 |
| 20260510041054 | 13 | 136 | 0.0 | 9.7 | 0.00 | 0.00 | 0.00 | 51 | 1009.8 |
| 20260510040553 | 13 | 136 | 0.0 | 9.7 | 0.00 | 0.00 | 0.00 | 51 | 1009.7 |
| 20260510040053 | 14 | 136 | 0.0 | 9.7 | 0.00 | 0.00 | 0.00 | 51 | 1009.7 |
| 20260510035553 | 14 | 136 | 0.0 | 9.7 | 0.00 | 0.00 | 0.00 | 50 | 1009.7 |
| 20260510035054 | 14 | 136 | 0.0 | 9.7 | 0.00 | 0.00 | 0.00 | 49 | 1009.6 |
| 20260510034554 | 15 | 136 | 0.0 | 9.7 | 0.00 | 0.00 | 0.00 | 49 | 1009.6 |
| 20260510034055 | 15 | 136 | 0.0 | 9.7 | 0.00 | 0.00 | 0.00 | 48 | 1009.6 |
| 20260510033553 | 15 | 136 | 0.0 | 9.7 | 0.00 | 0.00 | 0.00 | 47 | 1009.6 |
| 20260510033054 | 15 | 136 | 0.0 | 9.7 | 0.00 | 0.00 | 0.00 | 48 | 1009.5 |
| 20260510032555 | 15 | 136 | 0.0 | 9.7 | 0.00 | 0.00 | 0.00 | 47 | 1009.5 |
| 20260510032053 | 16 | 136 | 0.0 | 9.7 | 0.00 | 0.00 | 0.00 | 46 | 1009.5 |
| 20260510031553 | 16 | 136 | 0.0 | 9.7 | 0.00 | 0.00 | 0.00 | 45 | 1009.5 |
| 20260510031053 | 16 | 136 | 0.0 | 9.7 | 0.00 | 0.00 | 0.00 | 45 | 1009.5 |
| 20260510030554 | 16 | 136 | 0.0 | 9.7 | 0.00 | 0.00 | 0.00 | 44 | 1009.4 |
| 20260510030052 | 16 | 132 | 0.0 | 9.7 | 0.00 | 0.00 | 0.00 | 44 | 1009.3 |
| 20260510025553 | 16 | 131 | 0.0 | 9.7 | 0.00 | 0.00 | 0.00 | 44 | 1009.2 |
| 20260510025054 | 16 | 180 | 0.0 | 9.7 | 0.00 | 0.00 | 0.00 | 43 | 1009.2 |
| 20260510024554 | 16 | 178 | 0.0 | 9.7 | 0.00 | 0.00 | 0.00 | 43 | 1009.1 |
| 20260510024053 | 16 | 177 | 0.0 | 9.7 | 0.00 | 0.00 | 0.00 | 43 | 1009.1 |
| 20260510023553 | 16 | 179 | 0.0 | 9.7 | 0.00 | 0.00 | 0.00 | 43 | 1009.2 |
| 20260510023054 | 16 | 178 | 0.0 | 9.7 | 0.00 | 0.00 | 0.00 | 42 | 1009.2 |
| 20260510022554 | 17 | 180 | 0.0 | 9.7 | 0.00 | 0.00 | 0.00 | 43 | 1009.2 |
| 20260510022053 | 17 | 175 | 0.0 | 9.7 | 0.00 | 0.00 | 0.00 | 43 | 1009.3 |
| 20260510021553 | 17 | 176 | 1.6 | 9.7 | 0.00 | 0.00 | 0.00 | 42 | 1009.3 |
| 20260510021053 | 17 | 179 | 1.6 | 9.7 | 0.00 | 0.00 | 0.00 | 42 | 1009.3 |
| 20260510020554 | 17 | 175 | 0.0 | 9.7 | 0.00 | 0.00 | 0.00 | 44 | 1009.2 |
| 20260510020052 | 17 | 182 | 0.0 | 9.7 | 0.00 | 0.00 | 0.00 | 43 | 1009.2 |
| 20260510015553 | 17 | 182 | 0.0 | 9.7 | 0.00 | 0.00 | 0.00 | 42 | 1009.2 |
| 20260510015054 | 17 | 182 | 0.0 | 9.7 | 0.00 | 0.00 | 0.00 | 43 | 1009.3 |
| 20260510014554 | 17 | 182 | 0.0 | 9.7 | 0.00 | 0.00 | 0.00 | 41 | 1009.3 |
| 20260510014052 | 17 | 182 | 1.6 | 9.7 | 0.00 | 0.00 | 0.00 | 41 | 1009.2 |
| 20260510013553 | 17 | 183 | 0.0 | 9.7 | 0.00 | 0.00 | 0.00 | 41 | 1009.3 |
| 20260510013053 | 17 | 183 | 0.0 | 9.7 | 0.00 | 0.00 | 0.00 | 41 | 1009.3 |
| 20260510012554 | 17 | 183 | 0.0 | 9.7 | 0.00 | 0.00 | 0.00 | 41 | 1009.2 |
| 20260510012053 | 17 | 183 | 0.0 | 9.7 | 0.00 | 0.00 | 0.00 | 42 | 1009.3 |
| 20260510011553 | 17 | 183 | 0.0 | 9.7 | 0.00 | 0.00 | 0.00 | 41 | 1009.3 |
| 20260510011053 | 17 | 182 | 0.0 | 9.7 | 0.00 | 0.00 | 0.00 | 41 | 1009.3 |
| 20260510010553 | 17 | 182 | 0.0 | 9.7 | 0.00 | 0.00 | 0.00 | 40 | 1009.4 |
| 20260510010053 | 17 | 182 | 0.0 | 9.7 | 0.00 | 0.00 | 0.00 | 40 | 1009.4 |
| 20260510005552 | 17 | 182 | 0.0 | 9.7 | 0.00 | 0.00 | 0.00 | 40 | 1009.4 |
| 20260510005052 | 17 | 191 | 0.0 | 9.7 | 0.00 | 0.00 | 0.00 | 41 | 1009.5 |
| 20260510004554 | 17 | 191 | 1.6 | 9.7 | 0.00 | 0.00 | 0.00 | 40 | 1009.5 |
| 20260510004054 | 17 | 192 | 0.0 | 9.7 | 0.00 | 0.00 | 0.00 | 41 | 1009.5 |
| 20260510003554 | 17 | 192 | 0.0 | 9.7 | 0.00 | 0.00 | 0.00 | 40 | 1009.5 |
| 20260510003054 | 17 | 168 | 0.0 | 9.7 | 0.00 | 0.00 | 0.00 | 40 | 1009.6 |
| 20260510002553 | 18 | 168 | 0.0 | 9.7 | 0.00 | 0.00 | 0.00 | 40 | 1009.5 |
| 20260510002053 | 18 | 168 | 0.0 | 9.7 | 0.00 | 0.00 | 0.00 | 40 | 1009.5 |
| 20260510001553 | 18 | 168 | 0.0 | 9.7 | 0.00 | 0.00 | 0.00 | 39 | 1009.5 |
| 20260510001053 | 18 | 159 | 0.0 | 9.7 | 0.00 | 0.00 | 0.00 | 39 | 1009.5 |
| 20260510000553 | 18 | 146 | 0.0 | 9.7 | 0.00 | 0.00 | 0.00 | 41 | 1009.5 |
| 20260510000053 | 18 | 122 | 0.0 | 9.7 | 0.00 | 0.00 | 0.00 | 39 | 1009.5 |
| 20260509235552 | 18 | 127 | 0.0 | 9.7 | 0.00 | 0.00 | 0.00 | 40 | 1009.6 |
| 20260509235052 | 18 | 30 | 0.0 | 9.7 | 0.00 | 0.00 | 0.00 | 39 | 1009.5 |
| 20260509234552 | 18 | 30 | 0.0 | 9.7 | 0.00 | 0.00 | 0.00 | 40 | 1009.5 |
| 20260509234052 | 17 | 28 | 0.0 | 9.7 | 0.00 | 0.00 | 0.00 | 40 | 1009.5 |
| 20260509233554 | 17 | 28 | 1.6 | 9.7 | 0.00 | 0.00 | 0.00 | 40 | 1009.5 |
| 20260509233053 | 17 | 97 | 1.6 | 9.7 | 0.00 | 0.00 | 0.00 | 40 | 1009.5 |
| 20260509232553 | 17 | 86 | 0.0 | 9.7 | 0.00 | 0.00 | 0.00 | 41 | 1009.5 |
| 20260509232053 | 17 | 34 | 1.6 | 9.7 | 0.00 | 0.00 | 0.00 | 41 | 1009.5 |
| 20260509231553 | 17 | 41 | 0.0 | 9.7 | 0.00 | 0.00 | 0.00 | 41 | 1009.6 |
| 20260509231054 | 17 | 41 | 1.6 | 9.7 | 0.00 | 0.00 | 0.00 | 41 | 1009.7 |
| 20260509230552 | 17 | 43 | 1.6 | 9.7 | 0.00 | 0.00 | 0.00 | 41 | 1009.7 |
| 20260509230054 | 17 | 55 | 1.6 | 9.7 | 0.00 | 0.00 | 0.00 | 42 | 1009.7 |
| 20260509225552 | 17 | 104 | 0.0 | 9.7 | 0.00 | 0.00 | 0.00 | 42 | 1009.7 |
| 20260509225052 | 17 | 147 | 0.0 | 9.7 | 0.00 | 0.00 | 0.00 | 44 | 1009.8 |
| 20260509224554 | 16 | 146 | 0.0 | 9.7 | 0.00 | 0.00 | 0.00 | 44 | 1009.8 |
| 20260509224054 | 16 | 138 | 0.0 | 9.7 | 0.00 | 0.00 | 0.00 | 45 | 1009.9 |
| 20260509223553 | 17 | 35 | 0.0 | 9.7 | 0.00 | 0.00 | 0.00 | 41 | 1009.9 |
| 20260509223053 | 17 | 35 | 0.0 | 9.7 | 0.00 | 0.00 | 0.00 | 41 | 1009.9 |
| 20260509222553 | 17 | 40 | 0.0 | 9.7 | 0.00 | 0.00 | 0.00 | 41 | 1010.0 |
| 20260509222053 | 17 | 40 | 0.0 | 9.7 | 0.00 | 0.00 | 0.00 | 41 | 1010.0 |
| 20260509221553 | 17 | 43 | 0.0 | 9.7 | 0.00 | 0.00 | 0.00 | 41 | 1010.1 |
| 20260509221052 | 17 | 42 | 0.0 | 9.7 | 0.00 | 0.00 | 0.00 | 40 | 1010.0 |
| 20260509220552 | 17 | 49 | 0.0 | 9.7 | 0.00 | 0.00 | 0.00 | 42 | 1010.0 |
| 20260509220053 | 17 | 49 | 0.0 | 9.7 | 0.00 | 0.00 | 0.00 | 41 | 1010.0 |
| 20260509215553 | 17 | 49 | 0.0 | 9.7 | 0.00 | 0.00 | 0.00 | 41 | 1010.0 |
| 20260509215053 | 17 | 46 | 1.6 | 9.7 | 0.00 | 0.00 | 0.00 | 40 | 1010.0 |
| 20260509214553 | 17 | 357 | 0.0 | 9.7 | 0.00 | 0.00 | 0.00 | 41 | 1009.9 |
| 20260509214053 | 17 | 0 | 0.0 | 9.7 | 0.00 | 0.00 | 0.00 | 41 | 1010.0 |
| 20260509213553 | 17 | 0 | 0.0 | 9.7 | 0.00 | 0.00 | 0.00 | 40 | 1010.0 |
| 20260509213053 | 17 | 15 | 0.0 | 9.7 | 0.00 | 0.00 | 0.00 | 41 | 1010.0 |
| 20260509212552 | 17 | 15 | 0.0 | 9.7 | 0.00 | 0.00 | 0.00 | 41 | 1010.0 |
| 20260509212052 | 17 | 36 | 0.0 | 9.7 | 0.00 | 0.00 | 0.00 | 42 | 1010.1 |
| 20260509211552 | 17 | 47 | 1.6 | 9.7 | 0.00 | 0.00 | 0.00 | 41 | 1010.0 |
| 20260509211052 | 17 | 144 | 0.0 | 9.7 | 0.00 | 0.00 | 0.00 | 43 | 1010.1 |
| 20260509210552 | 17 | 144 | 0.0 | 9.7 | 0.00 | 0.00 | 0.00 | 40 | 1010.1 |
| 20260509210052 | 17 | 144 | 0.0 | 9.7 | 0.00 | 0.00 | 0.00 | 41 | 1010.1 |
| 20260509205552 | 17 | 144 | 0.0 | 9.7 | 0.00 | 0.00 | 0.00 | 42 | 1010.1 |
| 20260509205052 | 17 | 144 | 0.0 | 9.7 | 0.00 | 0.00 | 0.00 | 40 | 1010.1 |
| 20260509204551 | 17 | 144 | 0.0 | 9.7 | 0.00 | 0.00 | 0.00 | 42 | 1010.1 |
| 20260509204053 | 17 | 74 | 0.0 | 9.7 | 0.00 | 0.00 | 0.00 | 41 | 1010.1 |
| 20260509203553 | 17 | 176 | 0.0 | 9.7 | 0.00 | 0.00 | 0.00 | 42 | 1010.2 |
| 20260509203053 | 17 | 178 | 0.0 | 9.7 | 0.00 | 0.00 | 0.00 | 43 | 1010.2 |
| 20260509202553 | 17 | 178 | 0.0 | 9.7 | 0.00 | 0.00 | 0.00 | 44 | 1010.2 |
| 20260509202053 | 17 | 182 | 0.0 | 9.7 | 0.00 | 0.00 | 0.00 | 43 | 1010.2 |
| 20260509201553 | 17 | 182 | 0.0 | 9.7 | 0.00 | 0.00 | 0.00 | 42 | 1010.2 |
| 20260509201052 | 17 | 22 | 0.0 | 9.7 | 0.00 | 0.00 | 0.00 | 43 | 1010.2 |
| 20260509200552 | 17 | 22 | 0.0 | 9.7 | 0.00 | 0.00 | 0.00 | 43 | 1010.2 |
| 20260509200052 | 16 | 22 | 0.0 | 9.7 | 0.00 | 0.00 | 0.00 | 43 | 1010.2 |
| 20260509195552 | 16 | 19 | 0.0 | 9.7 | 0.00 | 0.00 | 0.00 | 44 | 1010.3 |
| 20260509195052 | 16 | 19 | 0.0 | 9.7 | 0.00 | 0.00 | 0.00 | 44 | 1010.3 |
| 20260509194553 | 16 | 19 | 0.0 | 9.7 | 0.00 | 0.00 | 0.00 | 43 | 1010.3 |
| 20260509194051 | 16 | 19 | 0.0 | 9.7 | 0.00 | 0.00 | 0.00 | 43 | 1010.3 |
| 20260509193551 | 16 | 0 | 0.0 | 9.7 | 0.00 | 0.00 | 0.00 | 44 | 1010.3 |
| 20260509193053 | 16 | 0 | 0.0 | 9.7 | 0.00 | 0.00 | 0.00 | 44 | 1010.3 |
| 20260509192553 | 16 | 167 | 0.0 | 9.7 | 0.00 | 0.00 | 0.00 | 45 | 1010.4 |
| 20260509192053 | 16 | 167 | 0.0 | 9.7 | 0.00 | 0.00 | 0.00 | 45 | 1010.4 |
| 20260509191553 | 16 | 167 | 0.0 | 9.7 | 0.00 | 0.00 | 0.00 | 44 | 1010.4 |
| 20260509191052 | 16 | 167 | 0.0 | 9.7 | 0.00 | 0.00 | 0.00 | 46 | 1010.4 |
| 20260509190552 | 16 | 167 | 0.0 | 9.7 | 0.00 | 0.00 | 0.00 | 45 | 1010.4 |
| 20260509190052 | 16 | 167 | 0.0 | 9.7 | 0.00 | 0.00 | 0.00 | 46 | 1010.4 |
| 20260509185552 | 16 | 166 | 1.6 | 9.7 | 0.00 | 0.00 | 0.00 | 46 | 1010.3 |
| 20260509185052 | 16 | 165 | 0.0 | 9.7 | 0.00 | 0.00 | 0.00 | 45 | 1010.3 |
| 20260509184552 | 16 | 165 | 0.0 | 9.7 | 0.00 | 0.00 | 0.00 | 45 | 1010.3 |
| 20260509184052 | 16 | 165 | 0.0 | 9.7 | 0.00 | 0.00 | 0.00 | 44 | 1010.2 |
| 20260509183551 | 16 | 165 | 1.6 | 9.7 | 0.00 | 0.00 | 0.00 | 43 | 1010.3 |
| 20260509183051 | 16 | 172 | 0.0 | 9.7 | 0.00 | 0.00 | 0.00 | 44 | 1010.2 |
| 20260509182551 | 16 | 173 | 0.0 | 9.7 | 0.00 | 0.00 | 0.00 | 42 | 1010.2 |
| 20260509182051 | 17 | 176 | 0.0 | 9.7 | 0.00 | 0.00 | 0.00 | 43 | 1010.1 |
| 20260509181551 | 17 | 176 | 0.0 | 9.7 | 0.00 | 0.00 | 0.00 | 42 | 1010.1 |
| 20260509181051 | 17 | 172 | 0.0 | 9.7 | 0.00 | 0.00 | 0.00 | 42 | 1010.1 |
| 20260509180553 | 17 | 177 | 1.6 | 8.0 | 0.00 | 0.00 | 0.00 | 43 | 1010.0 |
| 20260509180053 | 17 | 112 | 0.0 | 8.0 | 0.00 | 0.00 | 0.00 | 43 | 1010.1 |
| 20260509175553 | 17 | 25 | 1.6 | 6.4 | 0.00 | 0.00 | 0.00 | 43 | 1010.1 |
| 20260509175052 | 17 | 344 | 0.0 | 6.4 | 0.00 | 0.00 | 0.00 | 44 | 1010.0 |
| 20260509174552 | 16 | 117 | 0.0 | 6.4 | 0.00 | 0.00 | 0.00 | 45 | 1010.1 |
| 20260509174056 | 16 | 81 | 0.0 | 6.4 | 0.00 | 0.00 | 0.00 | 45 | 1010.0 |
| 20260509173556 | 16 | 294 | 0.0 | 6.4 | 0.00 | 0.00 | 0.00 | 46 | 1010.1 |
| 20260509173056 | 16 | 344 | 0.0 | 6.4 | 0.00 | 0.00 | 0.00 | 48 | 1010.0 |
| 20260509172556 | 15 | 344 | 0.0 | 6.4 | 0.00 | 0.00 | 0.00 | 48 | 1010.0 |
| 20260509172056 | 15 | 344 | 1.6 | 6.4 | 0.00 | 0.00 | 0.00 | 50 | 1010.0 |
| 20260509171556 | 15 | 330 | 0.0 | 6.4 | 0.00 | 0.00 | 0.00 | 50 | 1010.0 |
| 20260509171055 | 15 | 329 | 0.0 | 6.4 | 0.00 | 0.00 | 0.00 | 50 | 1010.0 |
| 20260509170555 | 15 | 5 | 0.0 | 6.4 | 0.00 | 0.00 | 0.00 | 51 | 1010.0 |
| 20260509170055 | 15 | 355 | 0.0 | 6.4 | 0.00 | 0.00 | 0.00 | 53 | 1010.0 |
| 20260509165555 | 14 | 355 | 0.0 | 6.4 | 0.00 | 0.00 | 0.00 | 54 | 1010.0 |
| 20260509165056 | 14 | 357 | 3.2 | 6.4 | 0.00 | 0.00 | 0.00 | 55 | 1010.0 |
| 20260509164555 | 13 | 24 | 0.0 | 6.4 | 0.00 | 0.00 | 0.00 | 56 | 1010.0 |
| 20260509164057 | 13 | 30 | 0.0 | 6.4 | 0.00 | 0.00 | 0.00 | 57 | 1010.0 |
| 20260509163557 | 13 | 16 | 0.0 | 6.4 | 0.00 | 0.00 | 0.00 | 58 | 1010.0 |
| 20260509163057 | 13 | 344 | 1.6 | 6.4 | 0.00 | 0.00 | 0.00 | 57 | 1010.0 |
| 20260509162556 | 13 | 37 | 1.6 | 6.4 | 0.00 | 0.00 | 0.00 | 57 | 1010.1 |
| 20260509162056 | 13 | 13 | 0.0 | 4.8 | 0.00 | 0.00 | 0.00 | 58 | 1010.1 |
| 20260509161556 | 13 | 14 | 0.0 | 4.8 | 0.00 | 0.00 | 0.00 | 58 | 1010.0 |
| 20260509161056 | 13 | 9 | 0.0 | 4.8 | 0.00 | 0.00 | 0.00 | 57 | 1010.0 |
| 20260509160556 | 13 | 9 | 0.0 | 4.8 | 0.00 | 0.00 | 0.00 | 58 | 1010.0 |
| 20260509160056 | 13 | 355 | 1.6 | 4.8 | 0.00 | 0.00 | 0.00 | 58 | 1010.0 |
| 20260509155556 | 13 | 355 | 0.0 | 4.8 | 0.00 | 0.00 | 0.00 | 59 | 1009.8 |
| 20260509155056 | 13 | 355 | 0.0 | 4.8 | 0.00 | 0.00 | 0.00 | 59 | 1009.8 |
| 20260509154556 | 12 | 326 | 0.0 | 3.2 | 0.00 | 0.00 | 0.00 | 59 | 1009.8 |
| 20260509154056 | 12 | 326 | 0.0 | 3.2 | 0.00 | 0.00 | 0.00 | 61 | 1009.7 |
| 20260509153556 | 12 | 292 | 0.0 | 3.2 | 0.00 | 0.00 | 0.00 | 62 | 1009.7 |
| 20260509153056 | 12 | 292 | 0.0 | 3.2 | 0.00 | 0.00 | 0.00 | 63 | 1009.6 |
| 20260509152555 | 12 | 292 | 0.0 | 3.2 | 0.00 | 0.00 | 0.00 | 64 | 1009.6 |
| 20260509152055 | 12 | 292 | 0.0 | 3.2 | 0.00 | 0.00 | 0.00 | 65 | 1009.5 |
| 20260509151555 | 12 | 292 | 0.0 | 3.2 | 0.00 | 0.00 | 0.00 | 65 | 1009.5 |
| 20260509151055 | 11 | 292 | 0.0 | 3.2 | 0.00 | 0.00 | 0.00 | 66 | 1009.5 |
| 20260509150555 | 11 | 292 | 0.0 | 3.2 | 0.00 | 0.00 | 0.00 | 66 | 1009.5 |
| 20260509150055 | 11 | 292 | 0.0 | 3.2 | 0.00 | 0.00 | 0.00 | 66 | 1009.5 |
| 20260509145555 | 11 | 292 | 0.0 | 3.2 | 0.00 | 0.00 | 0.00 | 67 | 1009.5 |
| 20260509145055 | 11 | 292 | 0.0 | 3.2 | 0.00 | 0.00 | 0.00 | 67 | 1009.5 |
| 20260509144555 | 11 | 292 | 0.0 | 3.2 | 0.00 | 0.00 | 0.00 | 67 | 1009.5 |
| 20260509144055 | 11 | 291 | 0.0 | 3.2 | 0.00 | 0.00 | 0.00 | 67 | 1009.5 |
| 20260509143556 | 11 | 288 | 0.0 | 3.2 | 0.00 | 0.00 | 0.00 | 66 | 1009.5 |
| 20260509143056 | 11 | 288 | 0.0 | 3.2 | 0.00 | 0.00 | 0.00 | 66 | 1009.4 |
| 20260509142556 | 11 | 288 | 0.0 | 3.2 | 0.00 | 0.00 | 0.00 | 66 | 1009.3 |
| 20260509142056 | 11 | 288 | 0.0 | 3.2 | 0.00 | 0.00 | 0.00 | 67 | 1009.2 |
| 20260509141556 | 11 | 288 | 0.0 | 3.2 | 0.00 | 0.00 | 0.00 | 67 | 1009.1 |
| 20260509141056 | 11 | 288 | 0.0 | 3.2 | 0.00 | 0.00 | 0.00 | 68 | 1009.1 |
| 20260509140556 | 10 | 288 | 0.0 | 3.2 | 0.00 | 0.00 | 0.00 | 68 | 1009.0 |
| 20260509140056 | 10 | 288 | 0.0 | 3.2 | 0.00 | 0.00 | 0.00 | 68 | 1009.0 |
| 20260509135556 | 10 | 288 | 0.0 | 3.2 | 0.00 | 0.00 | 0.00 | 68 | 1009.0 |
| 20260509135056 | 10 | 288 | 0.0 | 3.2 | 0.00 | 0.00 | 0.00 | 68 | 1008.9 |
| 20260509134555 | 10 | 288 | 0.0 | 3.2 | 0.00 | 0.00 | 0.00 | 69 | 1008.9 |
| 20260509134055 | 10 | 288 | 0.0 | 3.2 | 0.00 | 0.00 | 0.00 | 69 | 1008.8 |
| 20260509133555 | 10 | 288 | 0.0 | 3.2 | 0.00 | 0.00 | 0.00 | 69 | 1008.8 |
| 20260509133055 | 10 | 288 | 0.0 | 3.2 | 0.00 | 0.00 | 0.00 | 70 | 1008.8 |
| 20260509132555 | 10 | 288 | 0.0 | 3.2 | 0.00 | 0.00 | 0.00 | 70 | 1008.7 |
| 20260509132055 | 10 | 288 | 0.0 | 3.2 | 0.00 | 0.00 | 0.00 | 70 | 1008.7 |
| 20260509131555 | 10 | 288 | 0.0 | 3.2 | 0.00 | 0.00 | 0.00 | 70 | 1008.7 |
| 20260509131055 | 9 | 288 | 0.0 | 3.2 | 0.00 | 0.00 | 0.00 | 69 | 1008.6 |
| 20260509130554 | 9 | 288 | 0.0 | 3.2 | 0.00 | 0.00 | 0.00 | 68 | 1008.5 |
| 20260509130055 | 9 | 288 | 0.0 | 3.2 | 0.00 | 0.00 | 0.00 | 66 | 1008.5 |
| 20260509125555 | 8 | 288 | 0.0 | 3.2 | 0.00 | 0.00 | 0.00 | 62 | 1008.6 |
| 20260509125056 | 8 | 288 | 0.0 | 3.2 | 0.00 | 0.00 | 0.00 | 58 | 1008.6 |
| 20260509124554 | 8 | 288 | 0.0 | 3.2 | 0.00 | 0.00 | 0.00 | 54 | 1008.5 |
| 20260509124054 | 8 | 288 | 0.0 | 3.2 | 0.00 | 0.00 | 0.00 | 52 | 1008.5 |
| 20260509123554 | 8 | 288 | 0.0 | 3.2 | 0.00 | 0.00 | 0.00 | 52 | 1008.4 |
| 20260509123055 | 8 | 288 | 0.0 | 3.2 | 0.00 | 0.00 | 0.00 | 51 | 1008.4 |
| 20260509122555 | 8 | 288 | 0.0 | 3.2 | 0.00 | 0.00 | 0.00 | 50 | 1008.4 |
| 20260509122055 | 9 | 288 | 0.0 | 3.2 | 0.00 | 0.00 | 0.00 | 50 | 1008.3 |
| 20260509121555 | 9 | 288 | 0.0 | 3.2 | 0.00 | 0.00 | 0.00 | 50 | 1008.3 |
| 20260509121056 | 9 | 288 | 0.0 | 3.2 | 0.00 | 0.00 | 0.00 | 49 | 1008.4 |
| 20260509120556 | 9 | 288 | 0.0 | 3.2 | 0.00 | 0.00 | 0.00 | 49 | 1008.2 |
| 20260509120054 | 10 | 288 | 0.0 | 3.2 | 0.00 | 0.00 | 0.00 | 49 | 1008.2 |
| 20260509115555 | 10 | 288 | 0.0 | 3.2 | 0.00 | 0.00 | 0.00 | 48 | 1008.2 |
| 20260509115055 | 10 | 288 | 0.0 | 3.2 | 0.00 | 0.00 | 0.00 | 48 | 1008.0 |
| 20260509114555 | 10 | 288 | 0.0 | 3.2 | 0.00 | 0.00 | 0.00 | 48 | 1008.0 |
| 20260509114055 | 10 | 288 | 0.0 | 3.2 | 0.00 | 0.00 | 0.00 | 47 | 1008.0 |
| 20260509113556 | 10 | 288 | 0.0 | 3.2 | 0.00 | 0.00 | 0.00 | 47 | 1007.9 |
| 20260509113056 | 10 | 288 | 0.0 | 3.2 | 0.00 | 0.00 | 0.00 | 46 | 1007.8 |
| 20260509112556 | 10 | 288 | 0.0 | 3.2 | 0.00 | 0.00 | 0.00 | 46 | 1007.8 |
| 20260509112056 | 10 | 288 | 0.0 | 3.2 | 0.00 | 0.00 | 0.00 | 45 | 1007.8 |
| 20260509111556 | 10 | 288 | 0.0 | 3.2 | 0.00 | 0.00 | 0.00 | 45 | 1007.8 |
| 20260509111056 | 10 | 288 | 0.0 | 3.2 | 0.00 | 0.00 | 0.00 | 45 | 1007.8 |
| 20260509110554 | 10 | 288 | 0.0 | 3.2 | 0.00 | 0.00 | 0.00 | 45 | 1007.8 |
| 20260509110054 | 10 | 288 | 0.0 | 3.2 | 0.00 | 0.00 | 0.00 | 45 | 1007.8 |
| 20260509105555 | 10 | 288 | 0.0 | 3.2 | 0.00 | 0.00 | 0.00 | 44 | 1007.8 |
| 20260509105055 | 10 | 288 | 0.0 | 3.2 | 0.00 | 0.00 | 0.00 | 44 | 1007.8 |
| 20260509104555 | 10 | 288 | 0.0 | 3.2 | 0.00 | 0.00 | 0.00 | 45 | 1007.8 |
| 20260509104056 | 10 | 288 | 0.0 | 3.2 | 0.00 | 0.00 | 0.00 | 44 | 1007.8 |
| 20260509103556 | 10 | 288 | 0.0 | 3.2 | 0.00 | 0.00 | 0.00 | 46 | 1007.8 |
| 20260509103054 | 10 | 288 | 0.0 | 3.2 | 0.00 | 0.00 | 0.00 | 44 | 1007.8 |
| 20260509102554 | 10 | 288 | 0.0 | 3.2 | 0.00 | 0.00 | 0.00 | 44 | 1007.7 |
| 20260509102054 | 11 | 288 | 0.0 | 3.2 | 0.00 | 0.00 | 0.00 | 45 | 1007.7 |
| 20260509101554 | 11 | 288 | 0.0 | 3.2 | 0.00 | 0.00 | 0.00 | 45 | 1007.7 |
| 20260509101054 | 11 | 288 | 0.0 | 3.2 | 0.00 | 0.00 | 0.00 | 45 | 1007.6 |
| 20260509100556 | 11 | 288 | 0.0 | 3.2 | 0.00 | 0.00 | 0.00 | 44 | 1007.6 |
| 20260509100055 | 11 | 288 | 0.0 | 3.2 | 0.00 | 0.00 | 0.00 | 44 | 1007.6 |
| 20260509095554 | 11 | 288 | 0.0 | 3.2 | 0.00 | 0.00 | 0.00 | 43 | 1007.5 |
| 20260509095054 | 11 | 288 | 0.0 | 3.2 | 0.00 | 0.00 | 0.00 | 43 | 1007.5 |
| 20260509094554 | 11 | 288 | 0.0 | 3.2 | 0.00 | 0.00 | 0.00 | 43 | 1007.4 |
| 20260509094055 | 11 | 288 | 0.0 | 3.2 | 0.00 | 0.00 | 0.00 | 42 | 1007.3 |
| 20260509093555 | 11 | 288 | 0.0 | 3.2 | 0.00 | 0.00 | 0.00 | 42 | 1007.4 |
| 20260509093055 | 11 | 288 | 0.0 | 3.2 | 0.00 | 0.00 | 0.00 | 41 | 1007.3 |
| 20260509092556 | 11 | 288 | 0.0 | 3.2 | 0.00 | 0.00 | 0.00 | 42 | 1007.3 |
| 20260509092056 | 11 | 288 | 0.0 | 3.2 | 0.00 | 0.00 | 0.00 | 41 | 1007.3 |
| 20260509091554 | 11 | 288 | 0.0 | 3.2 | 0.00 | 0.00 | 0.00 | 42 | 1007.3 |
| 20260509091054 | 11 | 288 | 0.0 | 3.2 | 0.00 | 0.00 | 0.00 | 41 | 1007.4 |
| 20260509090554 | 11 | 288 | 0.0 | 3.2 | 0.00 | 0.00 | 0.00 | 41 | 1007.4 |
| 20260509090055 | 11 | 288 | 0.0 | 3.2 | 0.00 | 0.00 | 0.00 | 41 | 1007.4 |
| 20260509085555 | 11 | 288 | 0.0 | 3.2 | 0.00 | 0.00 | 0.00 | 41 | 1007.4 |
| 20260509085055 | 11 | 288 | 0.0 | 3.2 | 0.00 | 0.00 | 0.00 | 41 | 1007.4 |
| 20260509084555 | 11 | 288 | 0.0 | 3.2 | 0.00 | 0.00 | 0.00 | 41 | 1007.4 |
| 20260509084055 | 11 | 287 | 0.0 | 3.2 | 0.00 | 0.00 | 0.00 | 41 | 1007.4 |
| 20260509083555 | 11 | 341 | 0.0 | 3.2 | 0.00 | 0.00 | 0.00 | 42 | 1007.3 |
| 20260509083055 | 11 | 341 | 0.0 | 3.2 | 0.00 | 0.00 | 0.00 | 42 | 1007.4 |
| 20260509082555 | 11 | 341 | 0.0 | 3.2 | 0.00 | 0.00 | 0.00 | 42 | 1007.3 |
| 20260509082055 | 11 | 341 | 0.0 | 3.2 | 0.00 | 0.00 | 0.00 | 42 | 1007.3 |
| 20260509081554 | 11 | 341 | 0.0 | 3.2 | 0.00 | 0.00 | 0.00 | 41 | 1007.3 |
| 20260509081054 | 11 | 341 | 0.0 | 3.2 | 0.00 | 0.00 | 0.00 | 42 | 1007.3 |
| 20260509080555 | 12 | 341 | 0.0 | 3.2 | 0.00 | 0.00 | 0.00 | 41 | 1007.3 |
| 20260509080054 | 12 | 341 | 0.0 | 3.2 | 0.00 | 0.00 | 0.00 | 41 | 1007.3 |
| 20260509075554 | 12 | 341 | 0.0 | 3.2 | 0.00 | 0.00 | 0.00 | 40 | 1007.2 |
| 20260509075054 | 12 | 341 | 0.0 | 3.2 | 0.00 | 0.00 | 0.00 | 40 | 1007.2 |
| 20260509074554 | 12 | 341 | 0.0 | 3.2 | 0.00 | 0.00 | 0.00 | 39 | 1007.1 |
| 20260509074054 | 12 | 341 | 0.0 | 3.2 | 0.00 | 0.00 | 0.00 | 39 | 1007.0 |
| 20260509073554 | 12 | 341 | 0.0 | 3.2 | 0.00 | 0.00 | 0.00 | 39 | 1007.1 |
| 20260509073054 | 12 | 341 | 0.0 | 3.2 | 0.00 | 0.00 | 0.00 | 39 | 1007.1 |
| 20260509072554 | 12 | 341 | 0.0 | 3.2 | 0.00 | 0.00 | 0.00 | 38 | 1007.1 |
| 20260509072054 | 12 | 341 | 0.0 | 3.2 | 0.00 | 0.00 | 0.00 | 38 | 1007.0 |
| 20260509071554 | 13 | 341 | 0.0 | 3.2 | 0.00 | 0.00 | 0.00 | 38 | 1007.0 |
| 20260509071054 | 13 | 341 | 0.0 | 3.2 | 0.00 | 0.00 | 0.00 | 38 | 1007.0 |
| 20260509070554 | 13 | 341 | 0.0 | 3.2 | 0.00 | 0.00 | 0.00 | 37 | 1006.9 |
| 20260509070054 | 13 | 341 | 0.0 | 3.2 | 0.00 | 0.00 | 0.00 | 37 | 1006.9 |
| 20260509065556 | 13 | 341 | 0.0 | 3.2 | 0.00 | 0.00 | 0.00 | 37 | 1006.9 |